• en Belgique
  • Liste des pays
  • À 7 jours
  • Température de l'eau
  • Carte satellitaire
  • Carte météo
  • Widgets météo
  • user-avatar
    Se connecter

    Météo par heure à Blankenberge

    Ce jour, 20 Mai, Dimanche

    Heure Température Précipitation Vent Pression Humidité
    00:00 +8°C° 0 mm 2 m/s 767 mmHg 94%
    01:00 +7°C° 0 mm 2 m/s 767 mmHg 94%
    02:00 +7°C° 0 mm 2 m/s 767 mmHg 95%
    03:00 +7°C° 0 mm 2 m/s 767 mmHg 95%
    04:00 +8°C° 0 mm 2 m/s 767 mmHg 92%
    05:00 +9°C° 0 mm 2 m/s 767 mmHg 90%
    06:00 +10°C° 0 mm 2 m/s 767 mmHg 87%
    07:00 +13°C° 0 mm 2 m/s 767 mmHg 81%
    08:00 +15°C° 0 mm 2 m/s 767 mmHg 74%
    09:00 +17°C° 0 mm 2 m/s 767 mmHg 68%
    10:00 +18°C° 0 mm 3 m/s 766 mmHg 63%
    11:00 +19°C° 0 mm 3 m/s 766 mmHg 59%
    12:00 +20°C° 0 mm 3 m/s 766 mmHg 55%
    13:00 +21°C° 0 mm 4 m/s 766 mmHg 54%
    14:00 +21°C° 0 mm 4 m/s 765 mmHg 54%
    15:00 +22°C° 0 mm 5 m/s 765 mmHg 53%
    16:00 +21°C° 0 mm 5 m/s 764 mmHg 59%
    17:00 +20°C° 0 mm 5 m/s 764 mmHg 64%
    18:00 +19°C° 0 mm 5 m/s 764 mmHg 70%
    19:00 +16°C° 0,1 mm 5 m/s 764 mmHg 74%
    20:00 +15°C° 0,1 mm 5 m/s 764 mmHg 78%
    21:00 +13°C° 0,1 mm 5 m/s 764 mmHg 83%
    22:00 +13°C° 0 mm 5 m/s 764 mmHg 85%
    23:00 +13°C° 0 mm 4 m/s 764 mmHg 86%

    Demain, 21 Mai, Lundi

    Heure Température Précipitation Vent Pression Humidité
    00:00 +13°C° 0 mm 4 m/s 763 mmHg 88%
    01:00 +13°C° 0 mm 4 m/s 763 mmHg 88%
    02:00 +12°C° 0 mm 4 m/s 762 mmHg 88%
    03:00 +12°C° 0 mm 4 m/s 762 mmHg 88%
    04:00 +13°C° 0 mm 4 m/s 762 mmHg 86%
    05:00 +13°C° 0 mm 4 m/s 762 mmHg 83%
    06:00 +14°C° 0 mm 5 m/s 762 mmHg 80%
    07:00 +16°C° 0 mm 5 m/s 761 mmHg 75%
    08:00 +17°C° 0 mm 5 m/s 761 mmHg 71%
    09:00 +20°C° 0 mm 5 m/s 761 mmHg 66%
    10:00 +21°C° 0 mm 5 m/s 761 mmHg 63%
    11:00 +22°C° 0 mm 5 m/s 760 mmHg 60%
    12:00 +23°C° 0 mm 5 m/s 760 mmHg 56%
    13:00 +23°C° 0,4 mm 5 m/s 760 mmHg 58%
    14:00 +23°C° 0,4 mm 5 m/s 759 mmHg 60%
    15:00 +23°C° 0,4 mm 5 m/s 759 mmHg 62%
    16:00 +22°C° 0,2 mm 5 m/s 759 mmHg 66%
    17:00 +21°C° 0,2 mm 5 m/s 758 mmHg 70%
    18:00 +20°C° 0,2 mm 4 m/s 758 mmHg 73%
    19:00 +19°C° 0,3 mm 4 m/s 758 mmHg 77%
    20:00 +18°C° 0,3 mm 4 m/s 758 mmHg 80%
    21:00 +17°C° 0,3 mm 4 m/s 758 mmHg 84%
    22:00 +15°C° 0,6 mm 4 m/s 758 mmHg 86%
    23:00 +16°C° 0,6 mm 3 m/s 758 mmHg 88%

    Après-demain, 22 Mai, Mardi

    Heure Température Précipitation Vent Pression Humidité
    00:00 +14°C° 0,6 mm 3 m/s 758 mmHg 90%
    01:00 +14°C° 0 mm 3 m/s 758 mmHg 90%
    02:00 +13°C° 0 mm 3 m/s 758 mmHg 91%
    03:00 +14°C° 0 mm 2 m/s 758 mmHg 91%
    04:00 +15°C° 0 mm 2 m/s 758 mmHg 90%
    05:00 +16°C° 0 mm 3 m/s 758 mmHg 89%
    06:00 +16°C° 0 mm 3 m/s 758 mmHg 87%
    07:00 +18°C° 0 mm 3 m/s 758 mmHg 82%
    08:00 +19°C° 0 mm 2 m/s 758 mmHg 77%
    09:00 +21°C° 0 mm 2 m/s 759 mmHg 72%
    10:00 +22°C° 0 mm 3 m/s 759 mmHg 69%
    11:00 +24°C° 0 mm 3 m/s 759 mmHg 65%
    12:00 +25°C° 0 mm 4 m/s 759 mmHg 62%
    13:00 +23°C° 0,2 mm 4 m/s 759 mmHg 64%
    14:00 +23°C° 0,2 mm 4 m/s 759 mmHg 66%
    15:00 +22°C° 0,2 mm 5 m/s 759 mmHg 69%
    16:00 +21°C° 0,2 mm 5 m/s 759 mmHg 73%
    17:00 +20°C° 0,2 mm 5 m/s 759 mmHg 76%
    18:00 +19°C° 0,2 mm 5 m/s 760 mmHg 80%
    19:00 +17°C° 0,1 mm 5 m/s 760 mmHg 84%
    20:00 +17°C° 0,1 mm 4 m/s 760 mmHg 87%
    21:00 +14°C° 0,1 mm 4 m/s 761 mmHg 91%
    22:00 +14°C° 0,1 mm 4 m/s 761 mmHg 91%
    23:00 +14°C° 0,1 mm 4 m/s 761 mmHg 91%

    23 Mai, Mercredi

    Heure Température Précipitation Vent Pression Humidité
    00:00 +14°C° 0,1 mm 4 m/s 761 mmHg 91%
    01:00 +14°C° 0,2 mm 4 m/s 761 mmHg 92%
    02:00 +14°C° 0,2 mm 4 m/s 762 mmHg 92%
    03:00 +14°C° 0,2 mm 4 m/s 762 mmHg 93%
    04:00 +15°C° 0,1 mm 4 m/s 762 mmHg 92%
    05:00 +17°C° 0,1 mm 4 m/s 762 mmHg 90%
    06:00 +16°C° 0,1 mm 5 m/s 763 mmHg 89%
    07:00 +19°C° 0,3 mm 5 m/s 763 mmHg 85%
    08:00 +20°C° 0,3 mm 5 m/s 763 mmHg 81%
    09:00 +21°C° 0,3 mm 5 m/s 764 mmHg 76%
    10:00 +22°C° 0,7 mm 5 m/s 764 mmHg 73%
    11:00 +23°C° 0,7 mm 6 m/s 764 mmHg 69%
    12:00 +23°C° 0,7 mm 6 m/s 764 mmHg 66%
    13:00 +24°C° 0,3 mm 6 m/s 763 mmHg 65%
    14:00 +24°C° 0,3 mm 6 m/s 763 mmHg 65%
    15:00 +24°C° 0,3 mm 6 m/s 763 mmHg 64%
    16:00 +23°C° 0,5 mm 6 m/s 763 mmHg 68%
    17:00 +22°C° 0,5 mm 6 m/s 763 mmHg 73%
    18:00 +21°C° 0,5 mm 6 m/s 764 mmHg 77%
    19:00 +20°C° 0,3 mm 6 m/s 764 mmHg 80%
    20:00 +19°C° 0,3 mm 6 m/s 764 mmHg 83%
    21:00 +17°C° 0,3 mm 6 m/s 764 mmHg 87%
    22:00 +17°C° 0,7 mm 6 m/s 764 mmHg 88%
    23:00 +16°C° 0,7 mm 7 m/s 764 mmHg 88%

    24 Mai, Jeudi

    Heure Température Précipitation Vent Pression Humidité
    00:00 +16°C° 0,7 mm 7 m/s 764 mmHg 89%
    01:00 +16°C° 0,8 mm 7 m/s 764 mmHg 90%
    02:00 +15°C° 0,8 mm 7 m/s 764 mmHg 90%
    03:00 +15°C° 0,8 mm 7 m/s 764 mmHg 90%
    04:00 +15°C° 0,5 mm 7 m/s 764 mmHg 88%
    05:00 +15°C° 0,5 mm 7 m/s 764 mmHg 87%
    06:00 +15°C° 0,5 mm 7 m/s 764 mmHg 86%
    07:00 +16°C° 0,4 mm 6 m/s 764 mmHg 84%
    08:00 +17°C° 0,4 mm 6 m/s 764 mmHg 81%
    09:00 +19°C° 0,4 mm 6 m/s 764 mmHg 79%
    10:00 +20°C° 0,5 mm 6 m/s 764 mmHg 77%
    11:00 +21°C° 0,5 mm 7 m/s 764 mmHg 74%
    12:00 +23°C° 0,5 mm 7 m/s 764 mmHg 71%
    13:00 +23°C° 0,6 mm 7 m/s 764 mmHg 70%
    14:00 +23°C° 0,6 mm 7 m/s 764 mmHg 69%
    15:00 +24°C° 0,6 mm 7 m/s 763 mmHg 67%
    16:00 +23°C° 0,5 mm 7 m/s 763 mmHg 69%
    17:00 +23°C° 0,5 mm 7 m/s 763 mmHg 71%
    18:00 +22°C° 0,5 mm 6 m/s 763 mmHg 72%
    19:00 +21°C° 0,3 mm 7 m/s 764 mmHg 73%
    20:00 +20°C° 0,3 mm 7 m/s 764 mmHg 73%
    21:00 +18°C° 0,3 mm 7 m/s 764 mmHg 74%
    22:00 +17°C° 0,2 mm 7 m/s 764 mmHg 77%
    23:00 +16°C° 0,2 mm 7 m/s 764 mmHg 80%

    25 Mai, Vendredi

    Heure Température Précipitation Vent Pression Humidité
    00:00 +16°C° 0,2 mm 7 m/s 764 mmHg 82%
    01:00 +15°C° 0 mm 7 m/s 764 mmHg 83%
    02:00 +15°C° 0 mm 7 m/s 764 mmHg 84%
    03:00 +14°C° 0 mm 7 m/s 764 mmHg 85%
    04:00 +15°C° 0 mm 7 m/s 765 mmHg 82%
    05:00 +15°C° 0 mm 7 m/s 765 mmHg 80%
    06:00 +15°C° 0 mm 7 m/s 765 mmHg 78%
    07:00 +17°C° 0 mm 7 m/s 765 mmHg 74%
    08:00 +18°C° 0 mm 7 m/s 765 mmHg 71%
    09:00 +20°C° 0 mm 7 m/s 765 mmHg 67%
    10:00 +22°C° 0 mm 7 m/s 765 mmHg 64%
    11:00 +23°C° 0 mm 7 m/s 765 mmHg 61%
    12:00 +24°C° 0 mm 7 m/s 765 mmHg 58%
    13:00 +24°C° 0 mm 7 m/s 765 mmHg 57%
    14:00 +24°C° 0 mm 7 m/s 764 mmHg 57%
    15:00 +24°C° 0 mm 7 m/s 764 mmHg 57%
    16:00 +23°C° 0 mm 7 m/s 764 mmHg 60%
    17:00 +22°C° 0 mm 7 m/s 764 mmHg 64%
    18:00 +21°C° 0 mm 7 m/s 764 mmHg 67%
    19:00 +20°C° 0 mm 7 m/s 765 mmHg 66%
    20:00 +18°C° 0 mm 7 m/s 765 mmHg 65%
    21:00 +16°C° 0 mm 7 m/s 766 mmHg 64%
    22:00 +16°C° 0 mm 7 m/s 766 mmHg 67%
    23:00 +15°C° 0 mm 7 m/s 766 mmHg 70%
    Voir plus